Weather Service Report


217 
ASUS44 KSJT 010510
RWRSJT
WEST CENTRAL TEXAS REGIONAL WEATHER ROUNDUP
NATIONAL WEATHER SERVICE SAN ANGELO TX
1200 AM CDT WED OCT 01 2014

NOTE: "FAIR" INDICATES FEW OR NO CLOUDS BELOW 12,000 FEET WITH NO
SIGNIFICANT WEATHER AND/OR OBSTRUCTIONS TO VISIBILITY.

TXZ049-054-064>066-071>073-076>078-098-099-113-114-127-128-139-140-
154-155-168>170-010600
...LOCATIONS ACROSS WEST CENTRAL TEXAS...
  
CITY           SKY/WX    TMP DP  RH WIND       PRES   REMARKS
SAN ANGELO     CLEAR     76  61  59 S7        29.81S                  
ABILENE        CLEAR     77  60  55 S15       29.79S                  
DYESS AFB      CLEAR     76  60  57 S12       29.77R                  
JUNCTION       CLEAR     73  62  68 CALM      29.83R                  
SWEETWATER     CLEAR     77  60  55 S12       29.82S                  
BROWNWOOD      PTCLDY    75  63  64 S6        29.81R                  
COLEMAN        CLEAR     74  59  59 S6        29.81S                  
SONORA         CLEAR     75  63  64 S7        29.88S                  
OZONA          FAIR      73  61  64 S7        29.86F                  
BRADY          CLEAR     73  61  64 SE7       29.82S                  
$$

TEXAS PANHANDLE/OKLAHOMA PANHANDLE
  
CITY           SKY/WX    TMP DP  RH WIND       PRES   REMARKS
AMARILLO       CLEAR     59  47  64 S7        29.80S                  
BORGER         CLEAR     68  42  38 CALM      29.76S                  
CANADIAN       CLEAR     72  64  75 S12       29.73S                  
DALHART        CLEAR     54  45  71 S8        29.79F                  
DUMAS          CLEAR     58  41  53 SW10      29.78S                  
GUYMON         NOT AVBL                                               
HEREFORD       CLEAR     56  52  86 W8        29.82F                  
PAMPA          CLEAR     65  57  75 S10       29.78F                  
PERRYTON       CLEAR     65  39  39 CALM      29.76S                  
$$

SOUTHERN PANHANDLE/SOUTH PLAINS/ROLLING PLAINS
  
CITY           SKY/WX    TMP DP  RH WIND       PRES   REMARKS
LUBBOCK        PTCLDY    66  54  65 S5        29.80S                  
SNYDER         CLEAR     72  64  76 S9        29.80S                  
CHILDRESS      MOCLDY    77  59  53 S12       29.74R                  
SEMINOLE       PTCLDY    67  55  65 S7        29.84F                  
$$

PERMIAN BASIN
  
CITY           SKY/WX    TMP DP  RH WIND       PRES   REMARKS
MIDLAND        PTCLDY    76  63  64 S13G21    29.83R                  
ODESSA         PTCLDY    75  63  66 S12       29.84S                  
WINK           CLEAR     75  61  61 SE9       29.80S                  
$$

FAR WEST/SOUTHWEST MOUNTAINS/TRANS PECOS
  
CITY           SKY/WX    TMP DP  RH WIND       PRES   REMARKS
ALPINE         CLEAR     69  56  61 SW9       29.99S                  
DRYDEN           N/A     76  66  71 E5        29.80S                  
EL PASO        CLEAR     77  33  20 CALM      29.88S                  
FORT STOCKTON  CLEAR     73  62  68 S14       29.82F                  
GUADALUPE PASS CLEAR     66  46  48 SW8       29.99S                  
MARFA          CLEAR     61  54  77 E3        29.98F                  
PECOS          CLEAR     70  60  70 E7        29.78F                  
$$

DALLAS/FORT WORTH METROPLEX
  
CITY           SKY/WX    TMP DP  RH WIND       PRES   REMARKS
DFW AIRPORT    CLEAR     81  68  64 S12       29.76S                  
FTW MEACHAM    CLEAR     81  66  60 S13       29.76S                  
DAL-EXECUTIVE  CLEAR     80  68  66 SE9       29.77S                  
GRAND PRAIRIE  CLEAR     79  67  64 SE7       29.78S                  
ADDISON        CLEAR     80  67  63 S14       29.79S                  
MESQUITE       CLEAR     77  67  71 SE7       29.78F                  
LANCASTER      CLEAR     76  66  71 SE6       29.78F                  
$$

NORTH CENTRAL TEXAS
  
CITY           SKY/WX    TMP DP  RH WIND       PRES   REMARKS
SHRMAN/DENISON CLEAR     77  65  67 SE9       29.79S                  
GAINESVILLE    CLEAR     75  65  72 SE5       29.79F                  
BRIDGEPORT     CLEAR     77  57  50 S7        29.78S                  
DENTON         CLEAR     79  66  64 S10       29.77R                  
WAXAHACHIE     CLEAR     76  68  77 SE6       29.80R                  
GRANBURY       CLEAR     81  64  56 SE7       29.79R                  
$$

WESTERN NORTH TEXAS
  
CITY           SKY/WX    TMP DP  RH WIND       PRES   REMARKS
WICHITA FALLS  CLEAR     77  56  48 S14       29.73S                  
VERNON         PTCLDY    79  55  43 S13       29.73S                  
BRECKENRIDGE   CLEAR     79  59  49 S12       29.77S                  
COMANCHE       CLEAR     75  61  60 S8        29.80S                  
$$

CENTRAL AND SOUTH CENTRAL TEXAS
  
CITY           SKY/WX    TMP DP  RH WIND       PRES   REMARKS
AUSTIN/BERGSTM CLEAR     74  71  91 S5        29.80S                  
WACO           CLEAR     78  67  68 SE10      29.78F                  
HILLSBORO      CLEAR     78  66  66 SE10      29.78S                  
TEMPLE         CLEAR     75  64  69 S12       29.79F                  
KILLEEN-GRAY   CLEAR     77  68  73 SE12      29.79F                  
FORT HOOD      NOT AVBL                                               
GEORGETOWN     CLEAR     77  70  78 S7        29.81S                  
LAGO VISTA     FAIR      76  69  78 S7        29.83S                  
SAN MARCOS     CLEAR     75  68  78 S7        29.82R                  
NEW BRAUNFELS  MOCLDY    74  70  87 S3        29.80S                  
RANDOLPH AFB   CLEAR     75  71  87 SE6       29.81S                  
SAN ANTONIO    CLEAR     78  71  79 S10       29.81S                  
STINSON        CLEAR     76  71  85 SE6       29.79R                  
PLEASANTON     NOT AVBL                                               
LA GRANGE      CLEAR     76  74  93 SE3       29.79F                  
GIDDINGS       CLEAR     73  69  87 CALM      29.84F                  
$$

EAST TEXAS
  
CITY           SKY/WX    TMP DP  RH WIND       PRES   REMARKS
PARIS          CLEAR     72  61  68 E9        29.81S                  
CLARKSVILLE    NOT AVBL                                               
TYLER          CLEAR     77  70  79 S7        29.81S                  
LONGVIEW       CLOUDY    78  69  73 S7        29.81S                  
PALESTINE      CLEAR     77  72  83 SE5       29.82S                  
NACOGDOCHES    CLEAR     73  70  88 SE3       29.83S                  
$$

TEXAS HILL COUNTRY AND EDWARDS PLATEAU
  
CITY           SKY/WX    TMP DP  RH WIND       PRES   REMARKS
LLANO          CLEAR     73  64  73 CALM      29.83S                  
HORSESHOE BAY  FAIR      75  64  68 S8        29.80F                  
KERRVILLE      CLEAR     72  65  80 CALM      29.84S                  
FREDERICKSBRG  CLEAR     71  64  78 CALM      29.84S                  
ROCKSPRINGS    CLEAR     72  63  73 SE3       29.87F                  
HONDO          CLEAR     77  69  76 SE9       29.82S                  
UVALDE         CLEAR     75  69  80 SE6       29.81S                  
DEL RIO        CLEAR     77  67  71 SE6       29.77S                  
$$

SOUTHEAST TEXAS
  
CITY           SKY/WX    TMP DP  RH WIND       PRES   REMARKS
COLLEGE STN    CLEAR     75  71  87 S3        29.81S                  
CALDWELL       CLEAR     73  72  94 SE7       29.83F                  
CROCKETT       CLEAR     77  75  94 CALM      29.85S                  
BRENHAM        CLEAR     74  72  91 CALM      29.82S                  
HUNTSVILLE     MOCLDY    78  72  81 S5        29.82S                  
CONROE         CLOUDY    75  73  93 E3        29.82S                  
HOUSTON BUSH   MOCLDY    76  74  93 SE3       29.81R                  
HOUSTON HOBBY  PTCLDY    78  75  90 SE3       29.80S                  
PERLAND        CLEAR     79  76  90 SE5       29.82R                  
WHARTON        CLEAR     74  73  96 E3        29.81S FOG              
$$

THE UPPER TEXAS COAST
  
CITY           SKY/WX    TMP DP  RH WIND       PRES   REMARKS
ORANGE         CLEAR    N/A N/A N/A E5        29.83F                  
PORT ARTHUR    CLEAR     78  75  90 S6        29.81F                  
GALVESTON      PTCLDY    81  78  91 SE10      29.81S                  
ANGLETON       CLEAR     78  76  93 SE5       29.80S                  
BAY CITY       CLEAR    N/A N/A N/A E3        29.80S                  
$$

TEXAS COASTAL BEND, RIO GRANDE PLAINS DEEP SOUTH TEXAS
  
CITY           SKY/WX    TMP DP  RH WIND       PRES   REMARKS
VICTORIA       CLEAR     76  75  97 E5        29.80S                  
BEEVILLE       FAIR      75  75 100 CALM      29.80S                  
ROCKPORT       CLEAR     79  77  94 SE5       29.78F                  
PORT ARANSAS   CLEAR     79  77  92 SE5       29.79S                  
PORT LAVACA    PTCLDY    77  76  95 CALM      29.79F                  
CORPUS CHRISTI PTCLDY    76  74  93 SE5       29.79S                  
KINGSVILLE NAS PTCLDY    75  75 100 SE5       29.79S                  
COTULLA        CLEAR     78  71  79 SE9       29.78F                  
LAREDO         CLEAR     79  74  84 SE9       29.81S                  
BROWNSVILLE    CLEAR     75  75 100 S5        29.80S                  
PORT ISABEL    CLEAR     79  75  87 S6        29.79S                  
HEBBRONVILLE   CLEAR     75  73  92 SE3       29.82S                  
MCALLEN        CLEAR     78  76  93 SE5       29.80R                  
WESLACO        CLEAR     77  74  89 S6        29.79S                  
FALFURRIAS     CLEAR     75  74  99 SE3       29.79S                  
EDINBURG       CLEAR     79  75  89 SE5       29.79S                  
$$

Return to Home page


Western Regional Climate Center, wrcc@dri.edu